CW5917 Weather Reports


Display with metric or nautical units.
time (UTC)temp
F
wind
direction
speed
MPH
gust
MPH
rain 1hr
in
rain 24hr
in
rain mn
in
humidity
%
barometer
mb
20260509063050 56 221 10.0 14.0 0.00 0.00 0.00 71 1002.5
20260509062610 56 213 11.0 14.0 0.00 0.00 0.00 70 1002.6
20260509061520 57 194 9.0 15.0 0.00 0.00 0.00 68 1002.7
20260509061035 57 217 10.0 15.0 0.00 0.00 0.00 67 1002.8
20260509060535 57 213 9.0 16.0 0.00 0.00 0.00 66 1003.0
20260509060032 57 206 9.0 16.0 0.00 0.00 0.00 65 1002.9
20260509055527 57 209 9.0 16.0 0.00 0.00 0.00 64 1003.0
20260509055028 58 208 10.0 16.0 0.00 0.00 0.00 63 1003.1
20260509054523 58 221 10.0 16.0 0.00 0.00 0.00 61 1003.1
20260509054019 58 217 10.0 16.0 0.00 0.00 0.00 60 1003.1
20260509053531 58 225 11.0 19.0 0.00 0.00 0.00 59 1003.2
20260509053020 59 235 11.0 19.0 0.00 0.00 0.00 58 1003.2
20260509052541 59 209 11.0 16.0 0.00 0.00 0.00 57 1003.2
20260509052047 59 212 11.0 19.0 0.00 0.00 0.00 57 1003.3
20260509051545 59 192 12.0 19.0 0.00 0.00 0.00 56 1003.5
20260509051029 60 218 11.0 18.0 0.00 0.00 0.00 55 1003.5
20260509050524 60 233 9.0 18.0 0.00 0.00 0.00 54 1003.4
20260509050028 60 214 11.0 19.0 0.00 0.00 0.00 53 1003.6
20260509045523 60 202 13.0 19.0 0.00 0.00 0.00 53 1003.7
20260509045037 61 227 10.0 18.0 0.00 0.00 0.00 52 1003.6
20260509044532 61 192 13.0 22.0 0.00 0.00 0.00 52 1003.8
20260509044021 61 191 11.0 22.0 0.00 0.00 0.00 51 1003.7
20260509043523 61 194 10.0 19.0 0.00 0.00 0.00 51 1003.9
20260509043022 61 230 10.0 19.0 0.00 0.00 0.00 50 1004.0
20260509042518 61 209 10.0 19.0 0.00 0.00 0.00 50 1004.0
20260509042055 61 196 10.0 16.0 0.00 0.00 0.00 51 1004.0
20260509041532 61 210 6.0 11.0 0.00 0.00 0.00 52 1003.8
20260509041026 61 220 7.0 17.0 0.00 0.00 0.00 52 1003.8
20260509040521 60 244 9.0 16.0 0.00 0.00 0.00 52 1003.9
20260509040035 61 220 12.0 17.0 0.00 0.00 0.00 51 1004.0
20260509035539 61 230 8.0 17.0 0.00 0.00 0.00 51 1003.9
20260509035020 61 216 10.0 20.0 0.00 0.00 0.00 50 1003.7
20260509034526 61 217 10.0 20.0 0.00 0.00 0.00 50 1003.6
20260509034023 61 196 12.0 17.0 0.00 0.00 0.00 50 1003.6
20260509033538 61 217 8.0 15.0 0.00 0.00 0.00 50 1003.6
20260509033022 61 169 7.0 15.0 0.00 0.00 0.00 50 1003.4
20260509032518 61 190 8.0 15.0 0.00 0.00 0.00 49 1003.4
20260509032033 61 171 9.0 14.0 0.00 0.00 0.00 49 1003.5
20260509031532 61 181 9.0 16.0 0.00 0.00 0.00 48 1003.4
20260509031026 61 199 9.0 16.0 0.00 0.00 0.00 48 1003.5
20260509030523 61 210 12.0 16.0 0.00 0.00 0.00 48 1003.4
20260509030044 61 198 10.0 15.0 0.00 0.00 0.00 47 1003.4
20260509025600 61 187 10.0 15.0 0.00 0.00 0.00 46 1003.5
20260509025029 60 202 8.0 16.0 0.00 0.00 0.00 45 1003.5
20260509024522 60 187 9.0 14.0 0.00 0.00 0.00 44 1003.6
20260509024042 60 198 7.0 12.0 0.00 0.00 0.00 43 1003.7
20260509023534 60 192 6.0 11.0 0.00 0.00 0.00 42 1003.7
20260509023039 60 188 5.0 10.0 0.00 0.00 0.00 41 1003.6
20260509022526 60 203 5.0 9.0 0.00 0.00 0.00 41 1003.8
20260509022044 60 184 6.0 8.0 0.00 0.00 0.00 40 1003.7
20260509021523 60 195 2.0 6.0 0.00 0.00 0.00 40 1003.7
20260509021038 60 144 4.0 6.0 0.00 0.00 0.00 40 1003.6
20260509020534 60 171 5.0 7.0 0.00 0.00 0.00 40 1003.7
20260509020059 60 173 4.0 7.0 0.00 0.00 0.00 39 1003.7
20260509015534 60 186 4.0 7.0 0.00 0.00 0.00 38 1003.9
20260509015036 60 194 3.0 5.0 0.00 0.00 0.00 38 1003.8
20260509014532 61 176 3.0 6.0 0.00 0.00 0.00 38 1003.9
20260509014026 61 191 3.0 6.0 0.00 0.00 0.00 38 1003.9
20260509013519 61 171 4.0 7.0 0.00 0.00 0.00 37 1003.9
20260509013036 62 190 3.0 5.0 0.00 0.00 0.00 37 1003.9
20260509012520 62 190 2.0 5.0 0.00 0.00 0.00 36 1003.9
20260509012037 63 190 3.0 5.0 0.00 0.00 0.00 35 1004.0
20260509011534 63 190 2.0 4.0 0.00 0.00 0.00 35 1004.0
20260509011031 64 190 2.0 4.0 0.00 0.00 0.00 34 1004.0
20260509010538 64 190 2.0 4.0 0.00 0.00 0.00 34 1003.9
20260509010048 65 190 2.0 4.0 0.00 0.00 0.00 33 1004.0
20260509005047 66 190 2.0 4.0 0.00 0.00 0.00 33 1004.2
20260509004526 66 229 1.0 4.0 0.00 0.00 0.00 32 1004.2
20260509004021 66 229 3.0 5.0 0.00 0.00 0.00 31 1004.2
20260509003542 66 234 3.0 5.0 0.00 0.00 0.00 31 1004.1
20260509003050 66 214 3.0 8.0 0.00 0.00 0.00 31 1004.2
20260509002543 66 227 4.0 11.0 0.00 0.00 0.00 30 1004.2
20260509002019 67 217 5.0 11.0 0.00 0.00 0.00 30 1004.4
20260509001553 67 232 6.0 12.0 0.00 0.00 0.00 30 1004.4
20260509001019 67 239 8.0 15.0 0.00 0.00 0.00 29 1004.4
20260509000554 67 205 5.0 11.0 0.00 0.00 0.00 30 1004.5
20260509000022 68 245 6.0 11.0 0.00 0.00 0.00 30 1004.6
20260508235534 68 234 6.0 11.0 0.00 0.00 0.00 29 1004.6
20260508235020 68 226 7.0 12.0 0.00 0.00 0.00 29 1004.6
20260508234521 68 236 8.0 12.0 0.00 0.00 0.00 29 1004.7
20260508234034 68 244 7.0 16.0 0.00 0.00 0.00 29 1004.6
20260508233545 69 234 9.0 16.0 0.00 0.00 0.00 29 1004.8
20260508233039 69 289 5.0 16.0 0.00 0.00 0.00 29 1004.7
20260508232549 69 226 10.0 16.0 0.00 0.00 0.00 29 1004.7
20260508232054 69 242 7.0 13.0 0.00 0.00 0.00 29 1004.8
20260508231547 69 234 8.0 15.0 0.00 0.00 0.00 29 1004.9
20260508231019 69 249 10.0 16.0 0.00 0.00 0.00 28 1004.8
20260508230530 69 224 11.0 15.0 0.00 0.00 0.00 29 1004.8
20260508230048 69 223 9.0 16.0 0.00 0.00 0.00 28 1004.9
20260508225544 69 229 11.0 17.0 0.00 0.00 0.00 28 1004.9
20260508225032 69 250 11.0 17.0 0.00 0.00 0.00 27 1004.9
20260508224532 70 250 8.0 17.0 0.00 0.00 0.00 27 1004.9
20260508224023 70 244 11.0 17.0 0.00 0.00 0.00 27 1005.0
20260508223519 70 225 11.0 19.0 0.00 0.00 0.00 26 1005.0
20260508223036 69 239 6.0 19.0 0.00 0.00 0.00 28 1005.0
20260508222552 69 269 9.0 15.0 0.00 0.00 0.00 27 1005.1
20260508222020 69 292 6.0 14.0 0.00 0.00 0.00 26 1005.1
20260508221519 69 237 8.0 14.0 0.00 0.00 0.00 25 1005.3
20260508221032 70 246 5.0 16.0 0.00 0.00 0.00 25 1005.4
20260508220538 70 221 13.0 16.0 0.00 0.00 0.00 26 1005.5
20260508220018 70 236 10.0 19.0 0.00 0.00 0.00 26 1005.6
20260508215548 70 196 9.0 19.0 0.00 0.00 0.00 26 1005.6
20260508215017 70 217 10.0 21.0 0.00 0.00 0.00 26 1005.6
20260508214539 70 248 10.0 24.0 0.00 0.00 0.00 26 1005.6
20260508214036 71 226 9.0 16.0 0.00 0.00 0.00 25 1005.5
20260508213539 71 252 8.0 16.0 0.00 0.00 0.00 26 1005.8
20260508213040 71 302 10.0 16.0 0.00 0.00 0.00 26 1005.7
20260508212555 70 257 9.0 15.0 0.00 0.00 0.00 26 1005.7
20260508212018 71 229 9.0 17.0 0.00 0.00 0.00 25 1005.7
20260508211537 71 265 10.0 18.0 0.00 0.00 0.00 26 1005.8
20260508211022 71 236 10.0 16.0 0.00 0.00 0.00 25 1005.9
20260508210544 71 294 10.0 18.0 0.00 0.00 0.00 25 1005.8
20260508210055 71 217 9.0 18.0 0.00 0.00 0.00 26 1006.0
20260508205529 71 294 10.0 15.0 0.00 0.00 0.00 27 1006.0
20260508205023 71 250 8.0 17.0 0.00 0.00 0.00 26 1006.0
20260508204534 71 294 10.0 19.0 0.00 0.00 0.00 26 1006.0
20260508204019 71 243 13.0 19.0 0.00 0.00 0.00 27 1006.2
20260508203533 70 202 5.0 14.0 0.00 0.00 0.00 27 1006.2
20260508203026 70 228 8.0 19.0 0.00 0.00 0.00 27 1006.3
20260508202539 71 232 14.0 21.0 0.00 0.00 0.00 26 1006.4
20260508202045 71 183 12.0 22.0 0.00 0.00 0.00 25 1006.5
20260508201549 71 207 13.0 19.0 0.00 0.00 0.00 26 1006.6
20260508201042 70 277 11.0 16.0 0.00 0.00 0.00 28 1006.6
20260508200537 69 192 5.0 13.0 0.00 0.00 0.00 27 1006.6
20260508200026 69 291 6.0 18.0 0.00 0.00 0.00 26 1006.9
20260508195523 69 306 11.0 18.0 0.00 0.00 0.00 27 1006.9
20260508195031 68 290 3.0 16.0 0.00 0.00 0.00 25 1007.0
20260508194529 69 197 10.0 16.0 0.00 0.00 0.00 24 1007.1
20260508194019 70 214 11.0 21.0 0.00 0.00 0.00 27 1007.2
20260508193531 69 265 11.0 21.0 0.00 0.00 0.00 28 1007.2
20260508193034 69 205 6.0 14.0 0.00 0.00 0.00 26 1007.2
20260508192537 70 228 8.0 14.0 0.00 0.00 0.00 27 1007.4
20260508192025 70 300 9.0 15.0 0.00 0.00 0.00 26 1007.5
20260508191839 70 224 7.0 18.0 0.00 0.00 0.00 28 1007.6
20260508191024 69 232 12.0 18.0 0.00 0.00 0.00 28 1007.5
20260508190526 69 224 10.0 16.0 0.00 0.00 0.00 25 1007.6
20260508190047 69 209 6.0 14.0 0.00 0.00 0.00 28 1007.6
20260508185528 69 254 9.0 19.0 0.00 0.00 0.00 26 1007.6
20260508185030 69 263 11.0 19.0 0.00 0.00 0.00 25 1007.8
20260508184542 68 229 13.0 17.0 0.00 0.00 0.00 28 1007.7
20260508184108 69 289 6.0 16.0 0.00 0.00 0.00 25 1007.8
20260508183548 69 292 7.0 16.0 0.00 0.00 0.00 29 1007.9
20260508183035 69 281 7.0 12.0 0.00 0.00 0.00 27 1007.9
20260508182548 69 243 6.0 16.0 0.00 0.00 0.00 27 1008.0
20260508182039 68 196 5.0 16.0 0.00 0.00 0.00 28 1007.9
20260508181537 68 212 6.0 14.0 0.00 0.00 0.00 24 1008.0
20260508181032 68 217 9.0 17.0 0.00 0.00 0.00 28 1008.2
20260508180537 68 252 10.0 17.0 0.00 0.00 0.00 27 1008.2
20260508180023 67 207 6.0 11.0 0.00 0.00 0.00 30 1008.4
20260508175535 67 304 2.0 13.0 0.00 0.00 0.00 25 1008.4
20260508175038 67 309 6.0 14.0 0.00 0.00 0.00 25 1008.4
20260508174545 67 289 10.0 14.0 0.00 0.00 0.00 29 1008.5
20260508174020 66 184 3.0 9.0 0.00 0.00 0.00 31 1008.5
20260508173532 67 169 6.0 10.0 0.00 0.00 0.00 30 1008.5
20260508173026 67 246 3.0 10.0 0.00 0.00 0.00 27 1008.7
20260508172546 67 199 6.0 9.0 0.00 0.00 0.00 32 1008.7
20260508172021 66 27 1.0 10.0 0.00 0.00 0.00 27 1008.7
20260508171517 66 168 4.0 16.0 0.00 0.00 0.00 28 1009.0
20260508171056 66 218 11.0 16.0 0.00 0.00 0.00 26 1009.0
20260508170548 66 111 3.0 11.0 0.00 0.00 0.00 31 1009.1
20260508170017 66 225 8.0 12.0 0.00 0.00 0.00 30 1009.3
20260508165532 66 195 6.0 12.0 0.00 0.00 0.00 31 1009.4
20260508165025 66 202 8.0 12.0 0.00 0.00 0.00 29 1009.6
20260508164539 65 185 5.0 11.0 0.00 0.00 0.00 31 1009.6
20260508164035 65 234 8.0 13.0 0.00 0.00 0.00 29 1009.7
20260508163532 65 247 5.0 13.0 0.00 0.00 0.00 30 1009.9
20260508163019 65 227 5.0 16.0 0.00 0.00 0.00 29 1009.9
20260508162534 65 215 9.0 16.0 0.00 0.00 0.00 29 1010.0
20260508162037 65 118 3.0 10.0 0.00 0.00 0.00 33 1010.0
20260508161534 64 132 5.0 14.0 0.00 0.00 0.00 30 1010.1
20260508161051 64 182 8.0 14.0 0.00 0.00 0.00 29 1010.2
20260508160527 64 275 7.0 11.0 0.00 0.00 0.00 28 1010.2
20260508160023 64 226 5.0 10.0 0.00 0.00 0.00 30 1010.2
20260508155532 64 169 6.0 12.0 0.00 0.00 0.00 29 1010.3
20260508155035 63 221 9.0 12.0 0.00 0.00 0.00 32 1010.3
20260508154535 63 224 4.0 12.0 0.00 0.00 0.00 32 1010.2
20260508154057 63 205 7.0 14.0 0.00 0.00 0.00 32 1010.3
20260508153521 63 223 7.0 12.0 0.00 0.00 0.00 33 1010.3
20260508153055 63 207 8.0 12.0 0.00 0.00 0.00 30 1010.3
20260508152526 63 198 6.0 11.0 0.00 0.00 0.00 34 1010.5
20260508152022 62 222 7.0 11.0 0.00 0.00 0.00 35 1010.5
20260508151518 61 196 9.0 11.0 0.00 0.00 0.00 33 1010.5
20260508151034 61 192 6.0 11.0 0.00 0.00 0.00 35 1010.5
20260508150519 61 177 6.0 11.0 0.00 0.00 0.00 37 1010.5
20260508150058 60 165 6.0 11.0 0.00 0.00 0.00 35 1010.6
20260508145531 60 173 7.0 11.0 0.00 0.00 0.00 36 1010.5
20260508145025 60 170 6.0 11.0 0.00 0.00 0.00 36 1010.5
20260508144533 60 163 7.0 11.0 0.00 0.00 0.00 35 1010.5
20260508144025 60 170 6.0 11.0 0.00 0.00 0.00 33 1010.6
20260508143519 60 198 6.0 9.0 0.00 0.00 0.00 34 1010.5
20260508143027 60 229 6.0 11.0 0.00 0.00 0.00 35 1010.6
20260508142540 60 173 8.0 10.0 0.00 0.00 0.00 35 1010.7
20260508142018 60 167 5.0 10.0 0.00 0.00 0.00 40 1010.7
20260508141534 59 209 5.0 11.0 0.00 0.00 0.00 39 1010.7
20260508141041 59 161 6.0 9.0 0.00 0.00 0.00 39 1010.6
20260508140535 59 180 4.0 9.0 0.00 0.00 0.00 41 1010.5
20260508140022 58 167 4.0 10.0 0.00 0.00 0.00 41 1010.4
20260508135537 57 180 5.0 11.0 0.00 0.00 0.00 45 1010.5
20260508135017 56 177 7.0 10.0 0.00 0.00 0.00 45 1010.5
20260508134536 56 177 7.0 9.0 0.00 0.00 0.00 51 1010.7
20260508134024 55 178 5.0 7.0 0.00 0.00 0.00 57 1010.7
20260508133520 54 168 2.0 7.0 0.00 0.00 0.00 59 1010.6
20260508133036 53 182 4.0 7.0 0.00 0.00 0.00 62 1010.7
20260508132527 52 220 5.0 10.0 0.00 0.00 0.00 62 1010.7
20260508132042 52 197 5.0 10.0 0.00 0.00 0.00 63 1010.8
20260508131529 51 175 7.0 10.0 0.00 0.00 0.00 64 1010.8
20260508131023 50 168 6.0 9.0 0.00 0.00 0.00 66 1010.9
20260508130535 49 184 7.0 9.0 0.00 0.00 0.00 70 1011.0
20260508130057 48 182 5.0 8.0 0.00 0.00 0.00 73 1011.0
20260508125531 47 225 4.0 6.0 0.00 0.00 0.00 75 1011.1
20260508125023 46 202 3.0 8.0 0.00 0.00 0.00 78 1011.1
20260508124518 45 205 5.0 8.0 0.00 0.00 0.00 81 1011.0
20260508124030 43 186 5.0 8.0 0.00 0.00 0.00 85 1010.9
20260508123517 42 202 4.0 6.0 0.00 0.00 0.00 88 1011.0
20260508123034 41 185 3.0 6.0 0.00 0.00 0.00 89 1011.0
20260508122557 39 142 1.0 3.0 0.00 0.00 0.00 88 1011.0
20260508122023 38 22 0.0 1.0 0.00 0.00 0.00 88 1010.8
20260508121545 37 22 0.0 0.0 0.00 0.00 0.00 87 1010.8
20260508120558 35 22 0.0 0.0 0.00 0.00 0.00 86 1010.9
20260508120018 34 22 0.0 0.0 0.00 0.00 0.00 85 1010.9
20260508115526 34 22 0.0 0.0 0.00 0.00 0.00 85 1010.9
20260508115022 34 22 0.0 0.0 0.00 0.00 0.00 84 1011.0
20260508114528 33 22 0.0 0.0 0.00 0.00 0.00 84 1010.8
20260508114021 32 22 0.0 0.0 0.00 0.00 0.00 83 1010.7
20260508113520 32 22 0.0 0.0 0.00 0.00 0.00 82 1010.8
20260508113058 32 22 0.0 0.0 0.00 0.00 0.00 81 1010.7
20260508112523 32 22 0.0 0.0 0.00 0.00 0.00 81 1010.7
20260508112035 32 22 0.0 0.0 0.00 0.00 0.00 80 1010.7
20260508111536 32 22 0.0 0.0 0.00 0.00 0.00 80 1010.7
20260508111030 32 22 0.0 2.0 0.00 0.00 0.00 79 1010.7
20260508110526 32 22 1.0 2.0 0.00 0.00 0.00 79 1010.6
20260508110022 32 22 0.0 1.0 0.00 0.00 0.00 79 1010.7
20260508105517 32 22 0.0 0.0 0.00 0.00 0.00 79 1010.7
20260508105036 32 22 0.0 0.0 0.00 0.00 0.00 78 1010.6
20260508104555 32 22 0.0 0.0 0.00 0.00 0.00 78 1010.7
20260508104029 32 22 0.0 0.0 0.00 0.00 0.00 78 1010.7
20260508103525 32 22 0.0 0.0 0.00 0.00 0.00 78 1010.7
20260508103035 32 22 0.0 0.0 0.00 0.00 0.00 78 1010.7
20260508102544 32 22 0.0 0.0 0.00 0.00 0.00 78 1010.9
20260508102047 33 22 0.0 0.0 0.00 0.00 0.00 78 1010.8
20260508101531 33 22 0.0 0.0 0.00 0.00 0.00 77 1010.7
20260508101027 33 22 0.0 0.0 0.00 0.00 0.00 77 1010.7
20260508100519 33 22 0.0 0.0 0.00 0.00 0.00 77 1010.8
20260508100033 33 22 0.0 0.0 0.00 0.00 0.00 77 1010.9
20260508095520 33 22 0.0 0.0 0.00 0.00 0.00 77 1011.0
20260508095022 33 22 0.0 1.0 0.00 0.00 0.00 76 1011.0
20260508094523 33 22 0.0 1.0 0.00 0.00 0.00 76 1011.0
20260508094031 33 22 0.0 0.0 0.00 0.00 0.00 76 1011.0
20260508093537 33 22 0.0 0.0 0.00 0.00 0.00 75 1011.1
20260508093026 34 22 0.0 1.0 0.00 0.00 0.00 75 1011.0
20260508092523 34 22 0.0 1.0 0.00 0.00 0.00 74 1011.1
20260508092017 34 22 0.0 1.0 0.00 0.00 0.00 74 1011.1
20260508091537 34 22 0.0 2.0 0.00 0.00 0.00 74 1011.1
20260508091033 34 22 0.0 2.0 0.00 0.00 0.00 73 1011.0
20260508090521 34 22 0.0 0.0 0.00 0.00 0.00 73 1011.1
20260508090022 34 22 0.0 0.0 0.00 0.00 0.00 73 1011.0
20260508085521 35 22 0.0 0.0 0.00 0.00 0.00 73 1011.1
20260508085101 35 22 0.0 0.0 0.00 0.00 0.00 73 1011.2
20260508084538 35 22 0.0 2.0 0.00 0.00 0.00 72 1011.2
20260508084020 35 22 1.0 2.0 0.00 0.00 0.00 72 1011.3
20260508083533 35 22 0.0 2.0 0.00 0.00 0.00 71 1011.3
20260508083047 35 22 1.0 2.0 0.00 0.00 0.00 70 1011.4
20260508082519 35 22 0.0 1.0 0.00 0.00 0.00 70 1011.3
20260508082029 36 22 0.0 0.0 0.00 0.00 0.00 70 1011.3
20260508081524 36 22 0.0 0.0 0.00 0.00 0.00 69 1011.4
20260508081022 36 22 0.0 0.0 0.00 0.00 0.00 68 1011.4
20260508080520 36 22 0.0 0.0 0.00 0.00 0.00 68 1011.4
20260508080036 36 22 0.0 0.0 0.00 0.00 0.00 67 1011.5
20260508075549 37 22 0.0 0.0 0.00 0.00 0.00 68 1011.4
20260508075023 37 22 0.0 0.0 0.00 0.00 0.00 67 1011.5
20260508074559 37 22 0.0 2.0 0.00 0.00 0.00 67 1011.6
20260508074053 37 22 0.0 2.0 0.00 0.00 0.00 67 1011.7
20260508073528 38 22 0.0 1.0 0.00 0.00 0.00 67 1011.7
20260508073032 38 22 0.0 2.0 0.00 0.00 0.00 67 1011.8
20260508072521 38 22 0.0 3.0 0.00 0.00 0.00 66 1011.8
20260508072023 38 22 2.0 3.0 0.00 0.00 0.00 66 1011.7
20260508071523 38 22 2.0 3.0 0.00 0.00 0.00 64 1011.7
20260508071051 39 22 0.0 0.0 0.00 0.00 0.00 63 1011.7
20260508070519 39 22 0.0 0.0 0.00 0.00 0.00 63 1011.7
20260508070035 39 22 0.0 1.0 0.00 0.00 0.00 63 1011.7
20260508065542 40 22 0.0 1.0 0.00 0.00 0.00 63 1011.7
20260508065032 40 22 0.0 2.0 0.00 0.00 0.00 61 1011.8
20260508064525 40 22 2.0 2.0 0.00 0.00 0.00 61 1011.7
20260508064031 40 22 0.0 3.0 0.00 0.00 0.00 61 1011.7
20260508063522 41 22 1.0 3.0 0.00 0.00 0.00 61 1011.6